Weather History for Wooster, OH

Change the Weather History Date:

Thursday, May 22, 2014

  Actual Average Record
Temperature  
Mean Temperature 63 °F -  
Max Temperature 71 °F 67 °F 84 °F (2011)
Min Temperature 53 °F 46 °F 30 °F (2002)
Degree Days  
Heating Degree Days 2    
Growing Degree Days 13 (Base 50)    
Moisture  
Dew Point 55 °F    
Average Humidity 76    
Maximum Humidity 93    
Minimum Humidity 49    
Precipitation  
Precipitation 0.00 in - - ()
Sea Level Pressure  
Sea Level Pressure 29.95 in    
Wind  
Wind Speed 9 mph (NW)    
Max Wind Speed 16 mph    
Max Gust Speed 23 mph    
Visibility 9 miles    
Events      
Averages and records for this station are not official NWS values.
T = Trace of Precipitation, MM = Missing Value Source: NWS Daily Summary

Daily Weather History Graph

Daily Weather History Graph

Search for Another Location

Airport:

Trip Planner

Search our weather history database for the weather conditions in past years. The results will help you decide how hot, cold, wet, or windy it might be!

Date:

Astronomy

May. 22, 2014 Rise Set
Actual Time 6:04 AM EDT 8:44 PM EDT
Civil Twilight 5:32 AM EDT 9:16 PM EDT
Nautical Twilight 4:52 AM EDT 9:56 PM EDT
Astronomical Twilight 4:07 AM EDT 10:42 PM EDT
Moon 2:25 AM EDT (5/22) 2:28 PM EDT (5/22)
Length of Visible Light 15h 44m
Length of Day
14h 40m
Last Quarter, 37% of the Moon is Illuminated
May 22
Last Quarter
May 28
New
Jun 5
First Quarter
Jun 13
Full
Jun 19
Last Quarter

Hourly Weather History & Observations

Time (EDT) Temp. Dew Point Humidity Pressure Visibility Wind Dir Wind Speed Gust Speed Precip Events Conditions
12:56 AM 64.9 °F 60.1 °F 84% 29.89 in 10.0 mi WSW 10.4 mph - N/A   Clear
2:56 AM 61.0 °F 59.0 °F 93% 29.85 in 9.0 mi WSW 3.5 mph - N/A   Clear
3:56 AM 62.1 °F 60.1 °F 93% 29.86 in 9.0 mi WSW 9.2 mph - N/A   Clear
4:56 AM 63.0 °F 60.1 °F 90% 29.86 in 9.0 mi WSW 9.2 mph - N/A   Mostly Cloudy
5:56 AM 62.1 °F 60.1 °F 93% 29.86 in 7.0 mi WSW 6.9 mph - N/A   Partly Cloudy
6:56 AM 63.0 °F 61.0 °F 93% 29.89 in 6.0 mi West 8.1 mph - N/A   Mostly Cloudy
7:37 AM 64.0 °F 62.1 °F 93% 29.90 in 6.0 mi West 6.9 mph - N/A   Mostly Cloudy
7:56 AM 64.9 °F 62.1 °F 90% 29.90 in 5.0 mi WNW 9.2 mph - N/A   Mostly Cloudy
8:24 AM 66.0 °F 62.1 °F 87% 29.92 in 6.0 mi WNW 12.7 mph - N/A   Mostly Cloudy
8:56 AM 66.0 °F 60.1 °F 81% 29.91 in 7.0 mi NNW 11.5 mph - N/A   Overcast
9:26 AM 62.1 °F 55.9 °F 80% 29.94 in 6.0 mi North 15.0 mph - N/A   Haze
9:53 AM 62.6 °F 53.6 °F 72% 29.95 in 8.0 mi North 13.8 mph - N/A   Scattered Clouds
9:56 AM 63.0 °F 55.0 °F 75% 29.94 in 8.0 mi North 11.5 mph - N/A   Partly Cloudy
10:56 AM 64.9 °F 54.0 °F 68% 29.95 in 10.0 mi North 13.8 mph - N/A   Clear
11:56 AM 66.9 °F 50.0 °F 54% 29.97 in 10.0 mi North 12.7 mph - N/A   Clear
12:56 PM 69.1 °F 51.1 °F 53% 29.98 in 10.0 mi NNW 15.0 mph - N/A   Clear
1:56 PM 70.0 °F 51.1 °F 51% 29.99 in 10.0 mi NNW 16.1 mph - N/A   Clear
3:56 PM 71.1 °F 51.1 °F 49% 30.00 in 10.0 mi NNW 15.0 mph 23.0 mph N/A   Scattered Clouds
5:56 PM 68.0 °F 50.0 °F 52% 29.99 in 10.0 mi NNW 11.5 mph - N/A   Clear
6:56 PM 66.0 °F 48.9 °F 54% 29.99 in 10.0 mi North 13.8 mph - N/A   Clear
7:56 PM 63.0 °F 51.1 °F 65% 30.00 in 10.0 mi NNW 8.1 mph - N/A   Clear
8:56 PM 57.9 °F 51.1 °F 78% 30.02 in 10.0 mi Calm Calm - N/A   Clear
9:56 PM 57.0 °F 48.9 °F 74% 30.04 in 10.0 mi Calm Calm - N/A   Clear
10:56 PM 55.0 °F 50.0 °F 83% 30.04 in 10.0 mi Calm Calm - N/A   Clear
11:56 PM 53.1 °F 48.9 °F 86% 30.03 in 10.0 mi Calm Calm - N/A   Partly Cloudy